Flag for Belarus Weather past 2 weeks in Barysaw, Belarus

Now
57 °F

Passing clouds.


Feels Like: 57 °F
Forecast: 57 / 81 °F
Wind: 3 mph from Northeast

Location: Minsk

Current Time: Jul 23, 2014 at 7:19:48 AM

Latest Report: Jul 23, 2014 at 6:30 AM


Visibility: N/A

Pressure: 30.09 "Hg

Humidity: 88%

Dew point: 54 °F

Location of BarysawLocation

Historic Weather in Barysaw — Graph

°F

Barysaw temperature yesterday

Maximum temperature yesterday: 77 °F (at 1:00 PM)
Minimum temperature yesterday: 54 °F (at 3:30 AM)
Average temperature yesterday: 67 °F

Past Weeks' High & Low Weather Summary

 TemperatureHumidityPressure
High84 °F (Jul 8, 2:00 PM)100% (Jul 9, 1:00 AM)30.15 "Hg (Jul 9, 1:00 AM)
Low50 °F (Jul 10, 4:00 AM)30% (Jul 8, 2:30 PM)29.71 "Hg (Jul 12, 7:30 PM)
Average67 °F75%29.97 "Hg
* Reported Jul 8 6:00 AM — Jul 23 6:00 AM, Barysaw, Weather by CustomWeather, © 2014

Note: Actual official high and low records may vary slightly from our data, if they occured in-between our weather recording intervals... More about our weather records

Advertising

Barysaw weather history for previous 24 hours

 ConditionsComfort  
Time TempWeatherWind HumidityBarometerVisibility
6:00 AM
Jul 23
57 °FPassing clouds.3 mph88%30.09 "HgN/A
5:30 AM57 °FClear.3 mph88%30.09 "Hg10 mi
5:00 AM57 °FClear.3 mph88%30.09 "Hg10 mi
4:30 AM57 °FClear.1 mph88%30.09 "Hg10 mi
4:00 AM57 °FClear.1 mph88%30.09 "Hg10 mi
3:30 AM59 °FClear.No wind77%30.09 "Hg10 mi
3:00 AM61 °FClear.3 mph72%30.09 "Hg10 mi
2:00 AM61 °FClear.6 mph77%30.09 "Hg10 mi
8:00 PM
Jul 22
73 °FSunny.3 mph50%30.01 "Hg10 mi
7:30 PM73 °FSunny.6 mph53%30.01 "Hg10 mi
7:00 PM75 °FPartly sunny.8 mph47%30.01 "HgN/A
6:30 PM77 °FPartly sunny.8 mph36%30.01 "HgN/A
6:00 PM77 °FPartly sunny.3 mph42%30.01 "HgN/A
5:30 PM73 °FPartly sunny.No wind53%30.01 "HgN/A
5:00 PM72 °FBroken clouds.3 mph57%30.01 "HgN/A
4:30 PM75 °FPartly sunny.8 mph44%30.01 "HgN/A
4:02 PM77 °FThundershowers. Broken clouds.13 mph42%30.01 "HgN/A
3:30 PM77 °FSunny.8 mph42%30.01 "Hg10 mi
3:00 PM77 °FSunny.3 mph42%30.01 "Hg10 mi
2:30 PM77 °FPassing clouds.3 mph39%30.01 "HgN/A
2:00 PM77 °FSunny.8 mph44%30.01 "Hg10 mi
1:30 PM77 °FBroken clouds.10 mph44%30.01 "HgN/A
1:00 PM77 °FSunny.10 mph47%30.01 "Hg10 mi
12:30 PM75 °FPassing clouds.8 mph50%30.01 "HgN/A
12:00 PM73 °FPassing clouds.8 mph57%30.01 "HgN/A
11:30 AM72 °FPassing clouds.8 mph61%30.01 "HgN/A
11:00 AM70 °FPassing clouds.8 mph60%30.01 "HgN/A
10:30 AM66 °FSunny.6 mph73%30.01 "Hg10 mi
10:00 AM64 °FSunny.8 mph78%30.01 "Hg10 mi
9:30 AM66 °FSunny.6 mph73%30.01 "Hg10 mi
9:00 AM64 °FSunny.6 mph73%29.98 "Hg10 mi
8:30 AM63 °FSunny.6 mph77%29.98 "Hg10 mi
8:00 AM63 °FSunny.6 mph83%29.98 "Hg10 mi
7:30 AM61 °FSunny.6 mph83%29.98 "Hg10 mi
7:00 AM59 °FSunny.6 mph94%29.98 "Hg10 mi
Weather by CustomWeather, © 2014

See weather overviewHow to use our weather pages